Regional Weather Roundup
Issued by NWS Newport/Morehead, NC

Current Version | Previous Version | Text Only | Print | Product List | Glossary On
Versions: 1 2 3 4 5 6 7 8 9 10 11 12 13 14 15 16 17 18 19 20 21 22 23 24 25 26 27 28 29 30 31 32 33 34 35 36 37 38 39 40 41 42 43 44 45 46 47 48 49 50
000 ASUS42 KMHX 310713 RWRMHX WEATHER ROUNDUP FOR EASTERN NORTH CAROLINA NATIONAL WEATHER SERVICE NEWPORT/MOREHEAD CITY NC 300 AM EDT TUE MAY 31 2016 NOTE: "FAIR" INDICATES FEW OR NO CLOUDS BELOW 12,000 FEET WITH NO SIGNIFICANT WEATHER AND/OR OBSTRUCTIONS TO VISIBILITY NCZ015>017-031-032-045>047-102-103-310800- NORTH COAST CITY SKY/WX TMP DP RH WIND PRES REMARKS EDENTON CLOUDY N/A N/A N/A CALM 29.93S ELIZABETH CITY CLOUDY 70 69 97 NE3 29.92S KITTY HAWK FOG 68 68 100 CALM 29.91S VSB<1/4 MANTEO NOT AVBL $$ NCZ045>047-081-094-103-104-310800- CENTRAL COAST CITY SKY/WX TMP DP RH WIND PRES REMARKS FRISCO MOCLDY 70 69 97 CALM 29.91S $$ NCZ095-097-098-100-101-310800- SOUTHERN COAST CITY SKY/WX TMP DP RH WIND PRES REMARKS BEAUFORT CLOUDY 75 72 90 S6 29.89F CEDAR ISLAND NOT AVBL JACKSONVILLE CLOUDY 73 71 93 NE7 29.87F PINEY ISLAND NOT AVBL WILMINGTON CLEAR 69 68 96 NE3 29.87S $$ NCZ011>013-027>030-043-044-078>080-089-090>093-098-310800- COASTAL PLAIN CITY SKY/WX TMP DP RH WIND PRES REMARKS AHOSKIE CLOUDY 68 68 98 CALM 29.94S FOG CLINTON CLOUDY 72 72 100 CALM 29.90F ELIZABETHTOWN PTCLDY 71 71 100 CALM 29.89F GOLDSBORO FOG 70 70 100 NE3 29.90F VSB 1/2 GREENVILLE FOG 70 70 100 CALM 29.94S VSB 1/2 HAVELOCK CLOUDY 72 70 93 CALM 29.91S KENANSVILLE FOG 70 70 98 CALM 29.91S VSB 1 KINSTON FOG 70 70 99 E5 29.92S VSB 1/4 NEW BERN CLOUDY 71 69 93 NE5 29.90F RICHLANDS FOG 71 71 100 N7 29.89F VSB 1 ROCKY MOUNT CLOUDY 70 70 100 NE3 29.93F WASHINGTON FOG 68 67 99 CALM 29.91F VSB 1 WHITEVILLE PTCLDY 70 69 96 CALM 29.87F FOG $$ AMZ130-135-150-152-154-156-158-170-250-252-270-ANZ085-086-088-633-658-670-310800- MARINE OBSERVATIONS STATION/POSITION TIME TEMP WIND PRES WAVE SWELL AIR SEA DIR/SP/G HT/PER HT/PER (UTC) (F) (DEG/KT/KT) (MB) (FT/S) (FT/S) CHESAPEAKE LIGHT 0600 69 70/ 8/ 8 1014.3 64 E VA BEACH 0650 67 64 70/ 6/ 6 1011.8 5/ 7 5/ 7 DUCK 0600 68 59 20/ 4/ 4 1012.5 2 E DUCK 0611 61 N/A 4/ 6 OREGON INLET 0600 70 73 60/ 3/ 4 1012.8 13E OREGON INLT 0700 65 N/A 5/ 8 5/ 8 HATTERAS CG 0600 72 74 CALM 1012.5 DIAMOND BUOY 0650 78 80 210/ 14/ 17 1012.3 5/ 8 5/ 8 CAPE LOOKOUT 0600 75 140/ 8/ 9 1012.0 BEAUFORT LAB 0600 76 75 130/ 3/ 3 1011.7 30 SE NEW RVR IN 0625 76 N/A 5/ 8 27 SE WRIGHTSVLE 0608 75 76 150/ 8/ 10 1011.2 5 SE WRIGHTSVLE 0608 75 76 150/ 4/ 8 1011.8 225 S CAPE HAT 0650 76 76 150/ 12/ 16 1014.5 5/ 8 3/ 8 41 SE CHARLESTON 0650 74 77 240/ 23/ 27 1009.6 4/ 8 3/ 8 $$

USA.gov is the U.S. government's official web portal to all federal, state and local government web resources and services.